| time (UTC) | temp F | wind direction | speed knots | gust knots | rain 1hr in | rain 24hr in | rain mn in | humidity % | barometer mb |
| 20260505023136 | 74 | 317 | 7.0 | 14.8 | 0.00 | 0.00 | 0.00 | 23 | 1006.0 |
| 20260505022927 | 75 | 339 | 6.1 | 13.0 | 0.00 | 0.00 | 0.00 | 23 | 1005.9 |
| 20260505022134 | 75 | 333 | 6.1 | 11.3 | 0.00 | 0.00 | 0.00 | 22 | 1005.9 |
| 20260505021633 | 76 | 10 | 6.1 | 13.0 | 0.00 | 0.00 | 0.00 | 22 | 1005.8 |
| 20260505021422 | 76 | 329 | 7.0 | 15.6 | 0.00 | 0.00 | 0.00 | 22 | 1005.8 |
| 20260505020634 | 76 | 311 | 7.0 | 15.6 | 0.00 | 0.00 | 0.00 | 22 | 1005.8 |
| 20260505020141 | 76 | 336 | 7.0 | 13.9 | 0.00 | 0.00 | 0.00 | 22 | 1005.8 |
| 20260505015919 | 76 | 342 | 7.0 | 13.9 | 0.00 | 0.00 | 0.00 | 23 | 1005.7 |
| 20260505015136 | 77 | 355 | 7.8 | 13.9 | 0.00 | 0.00 | 0.00 | 23 | 1005.8 |
| 20260505014910 | 77 | 329 | 7.0 | 13.9 | 0.00 | 0.00 | 0.00 | 22 | 1005.7 |
| 20260505014131 | 78 | 340 | 7.8 | 13.0 | 0.00 | 0.00 | 0.00 | 23 | 1005.7 |
| 20260505013851 | 78 | 347 | 7.8 | 14.8 | 0.00 | 0.00 | 0.00 | 23 | 1005.8 |
| 20260505013631 | 78 | 347 | 7.8 | 14.8 | 0.00 | 0.00 | 0.00 | 23 | 1005.8 |
| 20260505013407 | 78 | 322 | 6.1 | 14.8 | 0.00 | 0.00 | 0.00 | 23 | 1005.7 |
| 20260505012631 | 79 | 35 | 5.2 | 10.4 | 0.00 | 0.00 | 0.00 | 24 | 1005.8 |
| 20260505012131 | 79 | 334 | 6.1 | 14.8 | 0.00 | 0.00 | 0.00 | 24 | 1005.7 |
| 20260505011631 | 79 | 319 | 7.0 | 14.8 | 0.00 | 0.00 | 0.00 | 24 | 1005.8 |
| 20260505011132 | 79 | 344 | 5.2 | 13.9 | 0.00 | 0.00 | 0.00 | 24 | 1005.9 |
| 20260505010632 | 80 | 337 | 5.2 | 13.9 | 0.00 | 0.00 | 0.00 | 24 | 1005.8 |
| 20260505010131 | 80 | 300 | 6.1 | 13.9 | 0.00 | 0.00 | 0.00 | 24 | 1005.8 |
| 20260505005640 | 80 | 355 | 5.2 | 11.3 | 0.00 | 0.00 | 0.00 | 25 | 1005.9 |
| 20260505005141 | 80 | 355 | 6.1 | 13.9 | 0.00 | 0.00 | 0.00 | 25 | 1006.0 |
| 20260505004639 | 80 | 323 | 7.0 | 13.9 | 0.00 | 0.00 | 0.00 | 24 | 1005.8 |
| 20260505004422 | 80 | 342 | 6.1 | 11.3 | 0.00 | 0.00 | 0.00 | 24 | 1005.9 |
| 20260505003635 | 80 | 333 | 6.1 | 11.3 | 0.00 | 0.00 | 0.00 | 24 | 1005.9 |
| 20260505003129 | 81 | 323 | 7.0 | 13.9 | 0.00 | 0.00 | 0.00 | 24 | 1006.0 |
| 20260505002628 | 81 | 5 | 7.0 | 13.9 | 0.00 | 0.00 | 0.00 | 25 | 1005.9 |
| 20260505002353 | 81 | 13 | 6.1 | 15.6 | 0.00 | 0.00 | 0.00 | 25 | 1005.9 |
| 20260505001845 | 81 | 347 | 6.1 | 15.6 | 0.00 | 0.00 | 0.00 | 24 | 1005.9 |
| 20260505001103 | 82 | 296 | 6.1 | 13.0 | 0.00 | 0.00 | 0.00 | 24 | 1005.8 |
| 20260505000559 | 81 | 18 | 6.1 | 12.2 | 0.00 | 0.00 | 0.00 | 24 | 1005.9 |
| 20260505000053 | 81 | 290 | 7.0 | 15.6 | 0.00 | 0.00 | 0.00 | 24 | 1005.8 |
| 20260504235545 | 81 | 288 | 7.0 | 15.6 | 0.00 | 0.00 | 0.00 | 24 | 1005.9 |
| 20260504235040 | 82 | 273 | 6.1 | 13.9 | 0.00 | 0.00 | 0.00 | 23 | 1005.8 |
| 20260504234532 | 82 | 0 | 6.1 | 13.0 | 0.00 | 0.00 | 0.00 | 23 | 1005.9 |
| 20260504234030 | 82 | 5 | 6.1 | 13.0 | 0.00 | 0.00 | 0.00 | 23 | 1005.8 |
| 20260504233800 | 82 | 315 | 7.0 | 13.0 | 0.00 | 0.00 | 0.00 | 23 | 1005.8 |
| 20260504233015 | 82 | 309 | 6.1 | 13.0 | 0.00 | 0.00 | 0.00 | 23 | 1005.8 |
| 20260504232511 | 82 | 291 | 5.2 | 13.9 | 0.00 | 0.00 | 0.00 | 24 | 1005.8 |
| 20260504232241 | 82 | 314 | 7.0 | 13.9 | 0.00 | 0.00 | 0.00 | 23 | 1005.9 |
| 20260504231501 | 82 | 296 | 7.0 | 15.6 | 0.00 | 0.00 | 0.00 | 23 | 1005.9 |
| 20260504230954 | 82 | 5 | 6.1 | 15.6 | 0.00 | 0.00 | 0.00 | 23 | 1005.9 |
| 20260504230711 | 82 | 325 | 6.1 | 14.8 | 0.00 | 0.00 | 0.00 | 22 | 1005.9 |
| 20260504225942 | 82 | 351 | 6.1 | 14.8 | 0.00 | 0.00 | 0.00 | 23 | 1006.0 |
| 20260504225435 | 82 | 355 | 5.2 | 13.9 | 0.00 | 0.00 | 0.00 | 22 | 1006.0 |
| 20260504224927 | 82 | 30 | 6.1 | 11.3 | 0.00 | 0.00 | 0.00 | 22 | 1006.2 |
| 20260504224429 | 82 | 355 | 6.1 | 17.4 | 0.00 | 0.00 | 0.00 | 23 | 1006.2 |
| 20260504223915 | 83 | 9 | 5.2 | 17.4 | 0.00 | 0.00 | 0.00 | 22 | 1006.1 |
| 20260504223414 | 83 | 59 | 5.2 | 10.4 | 0.00 | 0.00 | 0.00 | 22 | 1006.2 |
| 20260504223017 | 83 | 20 | 5.2 | 16.5 | 0.00 | 0.00 | 0.00 | 22 | 1006.5 |
| 20260504223003 | 83 | 320 | 6.1 | 16.5 | 0.00 | 0.00 | 0.00 | 21 | 1006.2 |
| 20260504221856 | 83 | 311 | 5.2 | 14.8 | 0.00 | 0.00 | 0.00 | 22 | 1006.4 |
| 20260504221624 | 83 | 334 | 5.2 | 14.8 | 0.00 | 0.00 | 0.00 | 23 | 1006.5 |
| 20260504221131 | 82 | 48 | 5.2 | 13.0 | 0.00 | 0.00 | 0.00 | 25 | 1006.6 |
| 20260504220555 | 82 | 44 | 4.3 | 12.2 | 0.00 | 0.00 | 0.00 | 24 | 1006.6 |
| 20260504215834 | 82 | 327 | 4.3 | 12.2 | 0.00 | 0.00 | 0.00 | 24 | 1006.5 |
| 20260504215609 | 82 | 24 | 5.2 | 12.2 | 0.00 | 0.00 | 0.00 | 24 | 1006.6 |
| 20260504214838 | 82 | 316 | 4.3 | 13.0 | 0.00 | 0.00 | 0.00 | 24 | 1006.6 |
| 20260504214334 | 83 | 36 | 5.2 | 13.0 | 0.00 | 0.00 | 0.00 | 24 | 1006.7 |
| 20260504213834 | 83 | 0 | 4.3 | 11.3 | 0.00 | 0.00 | 0.00 | 24 | 1006.6 |
| 20260504213334 | 83 | 58 | 3.5 | 9.6 | 0.00 | 0.00 | 0.00 | 25 | 1006.7 |
| 20260504212834 | 82 | 76 | 3.5 | 9.6 | 0.00 | 0.00 | 0.00 | 25 | 1006.9 |
| 20260504212334 | 82 | 53 | 4.3 | 10.4 | 0.00 | 0.00 | 0.00 | 25 | 1006.9 |
| 20260504211834 | 82 | 0 | 4.3 | 10.4 | 0.00 | 0.00 | 0.00 | 25 | 1007.0 |
| 20260504211609 | 82 | 60 | 4.3 | 11.3 | 0.00 | 0.00 | 0.00 | 26 | 1006.9 |
| 20260504210833 | 81 | 355 | 4.3 | 11.3 | 0.00 | 0.00 | 0.00 | 25 | 1007.0 |
| 20260504210334 | 81 | 31 | 4.3 | 9.6 | 0.00 | 0.00 | 0.00 | 26 | 1007.1 |
| 20260504205831 | 81 | 40 | 3.5 | 9.6 | 0.00 | 0.00 | 0.00 | 25 | 1007.1 |
| 20260504205330 | 82 | 40 | 2.6 | 8.7 | 0.00 | 0.00 | 0.00 | 25 | 1007.2 |
| 20260504204831 | 81 | 32 | 2.6 | 8.7 | 0.00 | 0.00 | 0.00 | 26 | 1007.3 |
| 20260504204330 | 81 | 355 | 3.5 | 10.4 | 0.00 | 0.00 | 0.00 | 25 | 1007.2 |
| 20260504203830 | 81 | 14 | 4.3 | 10.4 | 0.00 | 0.00 | 0.00 | 24 | 1007.4 |
| 20260504203331 | 81 | 32 | 3.5 | 10.4 | 0.00 | 0.00 | 0.00 | 24 | 1007.4 |
| 20260504202830 | 81 | 23 | 3.5 | 10.4 | 0.00 | 0.00 | 0.00 | 24 | 1007.3 |
| 20260504202335 | 81 | 74 | 3.5 | 12.2 | 0.00 | 0.00 | 0.00 | 24 | 1007.4 |
| 20260504202101 | 81 | 84 | 4.3 | 12.2 | 0.00 | 0.00 | 0.00 | 25 | 1007.5 |
| 20260504201411 | 80 | 345 | 3.5 | 7.8 | 0.00 | 0.00 | 0.00 | 24 | 1007.5 |
| 20260504201357 | 81 | 355 | 3.5 | 10.4 | 0.00 | 0.00 | 0.00 | 24 | 1007.5 |
| 20260504200329 | 80 | 32 | 4.3 | 10.4 | 0.00 | 0.00 | 0.00 | 24 | 1007.5 |
| 20260504195828 | 80 | 34 | 4.3 | 10.4 | 0.00 | 0.00 | 0.00 | 24 | 1007.7 |
| 20260504195328 | 80 | 38 | 4.3 | 9.6 | 0.00 | 0.00 | 0.00 | 24 | 1007.7 |
| 20260504194826 | 80 | 340 | 4.3 | 9.6 | 0.00 | 0.00 | 0.00 | 23 | 1007.7 |
| 20260504194612 | 80 | 34 | 4.3 | 10.4 | 0.00 | 0.00 | 0.00 | 25 | 1007.5 |
| 20260504193834 | 79 | 33 | 3.5 | 10.4 | 0.00 | 0.00 | 0.00 | 25 | 1007.7 |
| 20260504193601 | 80 | 38 | 2.6 | 8.7 | 0.00 | 0.00 | 0.00 | 27 | 1007.8 |
| 20260504192826 | 79 | 51 | 3.5 | 8.7 | 0.00 | 0.00 | 0.00 | 26 | 1007.8 |
| 20260504192325 | 79 | 344 | 4.3 | 10.4 | 0.00 | 0.00 | 0.00 | 26 | 1007.9 |
| 20260504191819 | 80 | 45 | 3.5 | 10.4 | 0.00 | 0.00 | 0.00 | 26 | 1007.8 |
| 20260504191316 | 79 | 15 | 3.5 | 13.0 | 0.00 | 0.00 | 0.00 | 27 | 1007.8 |
| 20260504190807 | 79 | 355 | 3.5 | 13.0 | 0.00 | 0.00 | 0.00 | 27 | 1007.8 |
| 20260504190303 | 79 | 53 | 4.3 | 10.4 | 0.00 | 0.00 | 0.00 | 28 | 1007.9 |
| 20260504190021 | 78 | 336 | 4.3 | 10.4 | 0.00 | 0.00 | 0.00 | 31 | 1008.0 |
| 20260504185256 | 78 | 330 | 4.3 | 15.6 | 0.00 | 0.00 | 0.00 | 32 | 1007.9 |
| 20260504184743 | 78 | 330 | 4.3 | 15.6 | 0.00 | 0.00 | 0.00 | 34 | 1007.9 |
| 20260504184240 | 78 | 333 | 3.5 | 9.6 | 0.00 | 0.00 | 0.00 | 32 | 1007.9 |
| 20260504183732 | 78 | 49 | 3.5 | 11.3 | 0.00 | 0.00 | 0.00 | 33 | 1008.1 |
| 20260504183226 | 77 | 45 | 4.3 | 11.3 | 0.00 | 0.00 | 0.00 | 35 | 1008.1 |
| 20260504182719 | 77 | 24 | 4.3 | 13.0 | 0.00 | 0.00 | 0.00 | 33 | 1008.2 |
| 20260504182220 | 76 | 45 | 4.3 | 12.2 | 0.00 | 0.00 | 0.00 | 34 | 1008.2 |
| 20260504182214 | 77 | 351 | 4.3 | 13.0 | 0.00 | 0.00 | 0.00 | 34 | 1008.2 |
| 20260504181200 | 76 | 36 | 4.3 | 12.2 | 0.00 | 0.00 | 0.00 | 33 | 1008.3 |
| 20260504180656 | 76 | 36 | 4.3 | 10.4 | 0.00 | 0.00 | 0.00 | 35 | 1008.4 |
| 20260504180422 | 75 | 337 | 4.3 | 9.6 | 0.00 | 0.00 | 0.00 | 33 | 1008.4 |
| 20260504175644 | 75 | 355 | 4.3 | 10.4 | 0.00 | 0.00 | 0.00 | 35 | 1008.5 |
| 20260504175137 | 76 | 32 | 4.3 | 10.4 | 0.00 | 0.00 | 0.00 | 34 | 1008.5 |
| 20260504174631 | 75 | 340 | 3.5 | 7.8 | 0.00 | 0.00 | 0.00 | 35 | 1008.4 |
| 20260504174400 | 75 | 46 | 3.5 | 8.7 | 0.00 | 0.00 | 0.00 | 36 | 1008.4 |
| 20260504173620 | 74 | 290 | 2.6 | 7.8 | 0.00 | 0.00 | 0.00 | 36 | 1008.3 |
| 20260504173114 | 74 | 337 | 2.6 | 7.8 | 0.00 | 0.00 | 0.00 | 35 | 1008.4 |
| 20260504172607 | 74 | 22 | 2.6 | 7.8 | 0.00 | 0.00 | 0.00 | 35 | 1008.4 |
| 20260504172100 | 75 | 36 | 2.6 | 6.1 | 0.00 | 0.00 | 0.00 | 34 | 1008.5 |
| 20260504171815 | 74 | 92 | 1.7 | 6.1 | 0.00 | 0.00 | 0.00 | 36 | 1008.4 |
| 20260504171311 | 74 | 131 | 0.9 | 6.1 | 0.00 | 0.00 | 0.00 | 35 | 1008.4 |
| 20260504170547 | 73 | 56 | 0.9 | 3.5 | 0.00 | 0.00 | 0.00 | 36 | 1008.5 |
| 20260504170110 | 72 | 61 | 0.9 | 3.5 | 0.00 | 0.00 | 0.00 | 38 | 1008.5 |
| 20260504170104 | 72 | 59 | 1.7 | 3.5 | 0.00 | 0.00 | 0.00 | 36 | 1008.5 |
| 20260504151036 | 57 | 125 | 1.7 | 6.1 | 0.00 | 0.00 | 0.00 | 54 | 1008.5 |
| 20260504150533 | 56 | 138 | 1.7 | 5.2 | 0.00 | 0.00 | 0.00 | 55 | 1008.6 |
| 20260504141039 | 49 | 153 | 3.5 | 6.1 | 0.00 | 0.00 | 0.00 | 63 | 1008.6 |
| 20260504140534 | 49 | 146 | 2.6 | 6.1 | 0.00 | 0.00 | 0.00 | 63 | 1008.6 |
| 20260504130419 | 49 | 144 | 2.6 | 6.1 | 0.00 | 0.00 | 0.00 | 62 | 1008.3 |
| 20260504110220 | 50 | 226 | 0.0 | 0.0 | 0.00 | 0.00 | 0.00 | 62 | 1008.3 |
| 20260504100210 | 52 | 259 | 0.0 | 0.0 | 0.00 | 0.00 | 0.00 | 57 | 1008.4 |
| 20260504081658 | 57 | 260 | 0.0 | 0.0 | 0.00 | 0.00 | 0.00 | 49 | 1008.5 |
| 20260504081154 | 57 | 261 | 0.0 | 0.0 | 0.00 | 0.00 | 0.00 | 48 | 1008.6 |
| 20260504080644 | 58 | 261 | 0.0 | 0.0 | 0.00 | 0.00 | 0.00 | 48 | 1008.6 |
| 20260504080139 | 58 | 261 | 0.0 | 0.0 | 0.00 | 0.00 | 0.00 | 47 | 1008.6 |
| 20260504050312 | 63 | 355 | 0.0 | 1.7 | 0.00 | 0.00 | 0.00 | 41 | 1008.4 |
| 20260504045804 | 64 | 355 | 0.0 | 0.9 | 0.00 | 0.00 | 0.00 | 40 | 1008.4 |
| 20260504045301 | 64 | 355 | 0.0 | 0.9 | 0.00 | 0.00 | 0.00 | 40 | 1008.4 |
| 20260504044759 | 65 | 355 | 0.0 | 0.9 | 0.00 | 0.00 | 0.00 | 39 | 1008.3 |
| 20260504044248 | 65 | 355 | 0.0 | 0.9 | 0.00 | 0.00 | 0.00 | 39 | 1008.3 |
| 20260504043745 | 66 | 355 | 0.0 | 0.9 | 0.00 | 0.00 | 0.00 | 38 | 1008.4 |
| 20260504043235 | 66 | 355 | 0.0 | 0.9 | 0.00 | 0.00 | 0.00 | 38 | 1008.3 |
| 20260504042728 | 67 | 355 | 0.0 | 0.9 | 0.00 | 0.00 | 0.00 | 37 | 1008.2 |
| 20260504042215 | 68 | 355 | 0.0 | 1.7 | 0.00 | 0.00 | 0.00 | 36 | 1008.3 |
| 20260504042210 | 68 | 355 | 0.0 | 1.7 | 0.00 | 0.00 | 0.00 | 36 | 1008.1 |
| 20260504041957 | 68 | 355 | 0.0 | 1.7 | 0.00 | 0.00 | 0.00 | 36 | 1008.1 |
| 20260504041201 | 69 | 355 | 0.0 | 2.6 | 0.00 | 0.00 | 0.00 | 35 | 1008.1 |
| 20260504040708 | 69 | 355 | 0.9 | 3.5 | 0.00 | 0.00 | 0.00 | 35 | 1008.0 |
| 20260504040207 | 69 | 351 | 1.7 | 4.3 | 0.00 | 0.00 | 0.00 | 35 | 1008.0 |
| 20260504035703 | 70 | 355 | 1.7 | 4.3 | 0.00 | 0.00 | 0.00 | 35 | 1008.0 |
| 20260504035204 | 70 | 355 | 1.7 | 4.3 | 0.00 | 0.00 | 0.00 | 34 | 1007.9 |
| 20260504034703 | 70 | 355 | 1.7 | 7.0 | 0.00 | 0.00 | 0.00 | 34 | 1007.8 |
| 20260504034200 | 71 | 336 | 1.7 | 7.0 | 0.00 | 0.00 | 0.00 | 33 | 1007.8 |
| 20260504033933 | 71 | 355 | 1.7 | 5.2 | 0.00 | 0.00 | 0.00 | 33 | 1007.8 |
| 20260504033432 | 71 | 355 | 1.7 | 4.3 | 0.00 | 0.00 | 0.00 | 33 | 1007.8 |
| 20260504032659 | 72 | 16 | 1.7 | 7.0 | 0.00 | 0.00 | 0.00 | 32 | 1007.7 |
| 20260504032159 | 72 | 348 | 2.6 | 7.0 | 0.00 | 0.00 | 0.00 | 32 | 1007.5 |
| 20260504031932 | 73 | 0 | 3.5 | 8.7 | 0.00 | 0.00 | 0.00 | 31 | 1007.5 |
| 20260504031204 | 73 | 355 | 2.6 | 8.7 | 0.00 | 0.00 | 0.00 | 31 | 1007.5 |
| 20260504030936 | 74 | 355 | 2.6 | 5.2 | 0.00 | 0.00 | 0.00 | 30 | 1007.4 |
| 20260504030428 | 74 | 355 | 2.6 | 7.8 | 0.00 | 0.00 | 0.00 | 30 | 1007.4 |
| 20260504025721 | 74 | 355 | 3.5 | 8.7 | 0.00 | 0.00 | 0.00 | 29 | 1007.4 |
| 20260504024655 | 76 | 5 | 4.3 | 11.3 | 0.00 | 0.00 | 0.00 | 29 | 1007.3 |
| 20260504024420 | 76 | 345 | 4.3 | 9.6 | 0.00 | 0.00 | 0.00 | 28 | 1007.2 |
| 20260504023947 | 76 | 11 | 4.3 | 11.3 | 0.00 | 0.00 | 0.00 | 28 | 1007.1 |